This demonstration page uses our WeatherBlox Daily Observations layout. Learn more.

Left ArrowRight Arrow

31.84235, -102.49876

Hourly Observations for March 11, 2022

Temp ( °F °C ) Dew Point ( °F °C ) Humidity (%) Winds ( mph kmh ) Pressure ( in mb ) Visibility ( mi km ) Precip ( " mm )
12:53 am 00:53 Clear 32 0 19 -7.2 59 59 NE 21 33 29.99 1016 9 14 0.00 0.00
1:53 am 01:53 Clear 29 -1.7 18 -7.8 63 63 NE 18 30 30.00 1016 10 16 0.00 0.00
2:53 am 02:53 Clear 26 -3.3 17 -8.3 69 69 NE 22 35 30.01 1016 10 16 0.00 0.00
3:53 am 03:53 Cloudy 26 -3.3 16 -8.9 66 66 NE 22 35 30.04 1017 10 16 0.00 0.00
4:53 am 04:53 Cloudy 26 -3.3 15 -9.4 63 63 NE 21 33 30.06 1018 10 16 0.00 0.00
5:53 am 05:53 Cloudy 26 -3.3 14 -10 60 60 NNE 16 26 30.08 1019 10 16 0.00 0.00
6:53 am 06:53 Cloudy 26 -3.3 14 -10 60 60 NNE 17 28 30.12 1020 10 16 0.00 0.00
7:53 am 07:53 Cloudy 27 -2.8 14 -10 58 58 NNE 18 30 30.16 1021 10 16 0.00 0.00
8:53 am 08:53 Cloudy 28 -2.2 15 -9.4 58 58 NNE 16 26 30.19 1022 10 16 0.00 0.00
9:53 am 09:53 Cloudy 31 -0.6 15 -9.4 52 52 NNE 18 30 30.22 1024 10 16 0.00 0.00
10:08 am 10:08 Cloudy 31 -0.6 15 -9.4 52 52 NE 16 26 30.35 1028 10 16 0.00 0.00
10:30 am 10:30 Cloudy 31 -0.6 15 -9.4 52 52 N 15 24 30.36 1028 10 16 0.00 0.00
10:53 am 10:53 Cloudy 32 0 15 -9.4 50 50 NNE 15 24 30.27 1025 10 16 0.00 0.00
11:53 am 11:53 Cloudy 33 0.6 15 -9.4 47 47 NNE 16 26 30.27 1025 10 16 0.00 0.00
12:53 pm 12:53 Cloudy 37 2.8 16 -8.9 42 42 N 14 22 30.27 1025 10 16 0.00 0.00
1:53 pm 13:53 Sunny 40 4.4 17 -8.3 40 40 N 14 22 30.25 1024 10 16 0.00 0.00
2:53 pm 14:53 Mostly Cloudy 39 3.9 18 -7.8 43 43 N 20 31 30.27 1025 9 14 0.00 0.00
3:53 pm 15:53 Partly Cloudy 39 3.9 18 -7.8 43 43 N 16 26 30.29 1026 10 16 0.00 0.00
4:53 pm 16:53 Sunny 40 4.4 19 -7.2 43 43 N 17 28 30.30 1026 10 16 0.00 0.00
5:53 pm 17:53 Sunny 40 4.4 19 -7.2 43 43 N 12 19 30.32 1027 10 16 0.00 0.00
6:53 pm 18:53 Sunny 38 3.3 17 -8.3 43 43 N 8 13 30.34 1028 10 16 0.00 0.00
7:53 pm 19:53 Clear 35 1.7 16 -8.9 46 46 NNW 5 7 30.36 1028 10 16 0.00 0.00
8:53 pm 20:53 Clear 34 1.1 16 -8.9 48 48 NNW 3 6 30.39 1029 10 16 0.00 0.00
9:53 pm 21:53 Clear 31 -0.6 13 -10.6 47 47 N 6 9 30.41 1030 10 16 0.00 0.00
10:53 pm 22:53 Clear 29 -1.7 9 -12.8 43 43 NE 7 11 30.41 1030 10 16 0.00 0.00
11:53 pm 23:53 Clear 29 -1.7 7 -13.9 39 39 NE 7 11 30.41 1030 10 16 0.00 0.00

Powered by AerisWeather